Volver al catálogo

YAOGAN 31 ADAPTER

ActivoLEO
NORAD 47855·DEBRIS·🇨🇳 China
Este nombre de satélite aún no ha sido confirmado por fuentes oficiales.

Lanzado Mar 13, 2021 desde Jiuquan Satellite Launch Center

Loading…

Próximos Pases (próximas 24 horas)

TLE

ActualizadoSource: Space-Track

Época: Sep 14, 2026, 16:18 UTC

1 47855U 21020B   26257.67958190 -.00000302  00000-0 -33167-3 0  9991
2 47855  63.4086  40.2990 0178068   1.4127 358.7366 13.44258730270214

Sigue YAOGAN 31 ADAPTER en tiempo real con AllMySat

Download on the App Store